This is the latest recevied weather packets stored in our database for station/object SP7WMI-13. If no packets are shown the sender has not sent any weather packets the latest 10 day(s).
| Time | Temp. | Humidity | Pressure | Rain* | Wind** | Luminosity | Snow |
|---|---|---|---|---|---|---|---|
| 1777297693 | 12.78° C | 38% | 1020 hPa | 0 mm | - | - | - |
| 1777296809 | 12.78° C | 38% | 1020 hPa | 0 mm | - | - | - |
| 1777295905 | 12.78° C | 38% | 1020.1 hPa | 0 mm | - | - | - |
| 1777295002 | 12.22° C | 39% | 1020 hPa | 0 mm | - | - | - |
| 1777294099 | 12.22° C | 39% | 1020.1 hPa | 0 mm | - | - | - |
| 1777293196 | 12.22° C | 39% | 1020.3 hPa | 0 mm | - | - | - |
| 1777292893 | 12.22° C | 39% | 1020.4 hPa | 0 mm | - | - | - |
| 1777291990 | 12.22° C | 38% | 1020.3 hPa | 0 mm | - | - | - |
| 1777291680 | 12.22° C | 38% | 1020.3 hPa | 0 mm | - | - | - |
| 1777291165 | 12.22° C | 38% | 1020.4 hPa | 0 mm | - | - | - |
| 1777290862 | 12.78° C | 37% | 1020.3 hPa | 0 mm | - | - | - |
| 1777290424 | 12.22° C | 37% | 1020.3 hPa | 0 mm | - | - | - |
| 1777290046 | 12.22° C | 38% | 1020.4 hPa | 0 mm | - | - | - |
| 1777289637 | 12.22° C | 37% | 1020.3 hPa | 0 mm | - | - | - |
| 1777289334 | 12.22° C | 37% | 1020.3 hPa | 0 mm | - | - | - |
| 1777288894 | 12.22° C | 38% | 1020.3 hPa | 0 mm | - | - | - |
| 1777288582 | 12.22° C | 38% | 1020.5 hPa | 0 mm | - | - | - |
| 1777288012 | 11.67° C | 39% | 1020.5 hPa | 0 mm | - | - | - |
| 1777287709 | 12.22° C | 38% | 1020.5 hPa | 0 mm | - | - | - |
| 1777287374 | 11.67° C | 39% | 1020.6 hPa | 0 mm | - | - | - |
| 1777286426 | 11.11° C | 40% | 1020.7 hPa | 0 mm | - | - | - |
| 1777285523 | 10.56° C | 41% | 1020.7 hPa | 0 mm | - | - | - |
| 1777284620 | 10.56° C | 40% | 1020.8 hPa | 0 mm | - | - | - |
| 1777284302 | 10.56° C | 40% | 1020.8 hPa | 0 mm | - | - | - |
| 1777283826 | 10° C | 40% | 1020.9 hPa | 0 mm | - | - | - |
* Rain since midnight (hover to see other rain measurements)
** Current wind speed in m/s (hover to see current wind gust speed)